Regional Weather Roundup
Issued by NWS

Home | Current Version | Previous Version | Graphics & Text | Print | Product List | Glossary On
Versions: 1 2 3 4 5 6 7 8 9 10 11 12 13 14 15 16 17 18 19 20 21 22 23 24 25 26 27 28 29 30 31 32 33 34 35 36 37 38 39 40 41 42 43 44 45 46 47
000
ASUS43 KDMX 280507
RWRIA

WEATHER ROUNDUP FOR IOWA
NATIONAL WEATHER SERVICE DES MOINES IA
1100 PM CST SAT DEC 27 2014

NOTE: "FAIR" INDICATES FEW OR NO CLOUDS BELOW 12,000 FEET WITH NO
SIGNIFICANT WEATHER AND/OR OBSTRUCTIONS TO VISIBILITY.

* - THESE STATIONS ARE NOT NWS STATIONS...THUS NOT UNDER NWS
QUALITY CONTROL.  THEY ALSO DO NOT REPORT WEATHER SUCH
AS PRECIPITATION OR FOG.

IAZ001>003-012>014-020>022-031>034-043>046-280600-
   NORTHWEST IOWA

CITY           SKY/WX    TMP DP  RH WIND       PRES   REMARKS
CARROLL *      CLEAR     16  12  86 W10       30.18F WCI   3
CHEROKEE *     CLEAR      7   5  92 CALM      30.18S
DENISON *      CLEAR     14  12  92 CALM      30.17F
LE MARS *      CLEAR      7   5  92 CALM      30.18F
ORANGE CITY *  CLEAR     10   7  85 CALM      30.14F
SHELDON *      CLEAR      7   5  92 S5        30.14S WCI  -2
SIOUX CITY     CLEAR      7   4  87 E7        30.20R WCI  -5
SPENCER        CLEAR      6   2  83 SW6       30.15F WCI  -4
STORM LAKE *   CLEAR     10   7  85 W10       30.17R WCI  -3
$$

IAZ055>058-069>071-079>083-090>094-280600-
   SOUTHWEST IOWA

CITY           SKY/WX    TMP DP  RH WIND       PRES   REMARKS
ATLANTIC *     CLEAR     16  12  86 SW5       30.21F WCI   9
AUDUBON *      CLEAR     14   9  79 CALM      30.19F
CLARINDA *     CLEAR     14  14 100 SW5       30.27S WCI   6
COUNCIL BLFS * CLEAR     19  18  93 SW7       30.20F WCI  10
CRESTON *      CLEAR     16  14  93 W7        30.22S WCI   6
HARLAN  *      CLEAR     12  14 100 CALM      30.24S
LAMONI         CLEAR     20  17  88 W6        30.23R WCI  12
RED OAK *      CLEAR     16  14  93 SW3       30.24F
SHENANDOAH *   CLEAR     18  16  93 CALM      30.26S
$$

IAZ047>049-059>061-072>074-084-280600-
   CENTRAL IOWA

CITY           SKY/WX    TMP DP  RH WIND       PRES   REMARKS
AMES           CLEAR     18  13  80 W5        30.20S WCI  11
ANKENY *       CLEAR     18  16  93 CALM      30.22S
CHARITON *     CLEAR     21  18  86 W5        30.22S WCI  15
DES MOINES     CLEAR     20  16  84 W6        30.23S WCI  12
GRINNELL*      CLEAR     19  16  86 W6        30.20F WCI  11
KNOXVILLE *    CLEAR     21  18  86 W8        30.21S WCI  12
MARSHALLTOWN   CLEAR     16  13  88 W7        30.18F WCI   6
PELLA *        CLEAR     21  18  88 NW6       30.23F WCI  13
PERRY *          N/A     16  14  93 SW7       30.20F WCI   6
$$

IAZ004>006-015-016-023>025-035-036-280600-
   NORTH CENTRAL IOWA

CITY           SKY/WX    TMP DP  RH WIND       PRES   REMARKS
ALGONA *       CLEAR     10   7  85 W10       30.17F WCI  -3
CLARION *      CLEAR      9   7  92 W5        30.19S WCI   0
ESTHERVILLE    CLEAR     10   7  87 SW10      30.13F WCI  -4
FORT DODGE *   CLEAR     12   7  79 W5        30.20R WCI   4
MASON CITY       N/A     12   8  84 W12       30.17S WCI  -2
FOREST CITY *  CLEAR     12   9  85 SW6       30.15F WCI   3
IOWA FALLS *     N/A     16  12  86 W10       30.19R WCI   3
$$

IAZ007>011-017>019-026>030-037>042-050>054-066-280600-
   NORTHEAST IOWA

CITY           SKY/WX    TMP DP  RH WIND       PRES   REMARKS
CEDAR RAPIDS   CLEAR     16  14  92 W7        30.19S WCI   6
CHARLES CITY * CLEAR     14  12  92 W12       30.17S WCI   0
CLINTON *      PTCLDY    23  18  80 NW10      30.21S WCI  12
DECORAH *      CLEAR     16  10  79 W8        30.15R WCI   5
DUBUQUE        CLEAR     19  15  84 W7        30.15F WCI  10
MONTICELLO *   CLEAR     19  16  86 W9        30.19S WCI   9
OELWEIN *      CLEAR     18  14  86 W8        30.17S WCI   7
WATERLOO       CLEAR     17  14  88 W7        30.19S WCI   8
$$

IAZ064-065-067-068-078-280600-
   EAST CENTRAL IOWA

CITY           SKY/WX    TMP DP  RH WIND       PRES   REMARKS
DAVENPORT      CLEAR     23  18  81 W13       30.19F WCI  11
IOWA CITY      CLEAR     20  16  84 W5        30.23S WCI  13
MT. PLEASANT * CLOUDY    27  21  80 NW9       30.23S WCI  17
MUSCATINE *    CLOUDY    27  21  80 NW9       30.23F WCI  17
QUAD CITIES    CLEAR     25  19  78 NW15      30.19F WCI  13
$$

IAZ062-063-075>077-085>089-095>099-280600-
   SOUTHEAST IOWA

CITY           SKY/WX    TMP DP  RH WIND       PRES   REMARKS
BURLINGTON     CLOUDY    28  22  78 W7        30.21S WCI  21
FAIRFIELD *    CLOUDY    27  19  74 W10       30.22F WCI  17
FORT MADISON * CLOUDY    30  25  80 W9        30.22F WCI  22
KEOKUK *       CLOUDY    28  23  80 W12       30.22S WCI  18
OSKALOOSA *    CLOUDY    25  21  86 NW6       30.23R WCI  18
CENTERVILLE *  CLOUDY    27  23  86 W6        30.24F WCI  20
OTTUMWA        CLOUDY    26  19  74 W10       30.22S WCI  16
WASHINGTON *   CLOUDY    27  23  86 NW12G17   30.22F WCI  16
$$

ABBREVIATIONS USED IN REMARKS
   TC - TEMPERATURES IN CELSIUS
  WCI - WIND CHILL INDEX
   HX - HEAT INDEX
  VSB - VISIBILITY
$$




USA.gov is the U.S. government's official web portal to all federal, state and local government web resources and services.